Terminal Aerodrome Forecast
Issued by NWS Charleston, WV

Current Version | Previous Version | Graphics & Text | Print | Product List | Glossary On
Versions: 1 2 3 4 5 6 7 8 9 10 11 12 13 14 15 16 17 18 19 20 21 22 23 24
041
FTUS41 KRLX 151314 AAB
TAFPKB
TAF AMD
KPKB 151314Z 1513/1612 00000KT P6SM SCT001
     FM151400 15006KT P6SM SCT150
     FM152000 19008KT P6SM BKN150
     FM152300 20007KT P6SM -SHRA OVC090=

USA.gov is the U.S. government's official web portal to all federal, state and local government web resources and services.